DW9996 Weather Reports


time (UTC)temp
F
wind
direction
speed
knots
gust
knots
rain 1hr
in
rain 24hr
in
rain mn
in
humidity
%
barometer
mb
20260831153032 65 306 5.2 11.3 0.00 0.00 0.00 51 1012.4
20260831151525 64 305 3.5 11.3 0.00 0.00 0.00 50 1012.2
20260831150024 63 297 3.5 9.6 0.00 0.00 0.00 50 1012.1
20260831144521 61 302 4.3 9.6 0.00 0.00 0.00 53 1011.9
20260831143021 59 281 3.5 8.7 0.00 0.00 0.00 55 1011.8
20260831141508 58 288 4.3 10.4 0.00 0.00 0.00 57 1011.6
20260831140004 56 295 1.7 6.1 0.00 0.00 0.00 59 1011.4
20260831134505 56 277 2.6 7.8 0.00 0.00 0.00 59 1011.3
20260831133059 55 287 3.5 7.0 0.00 0.00 0.00 62 1011.0
20260831131600 53 287 4.3 10.4 0.00 0.00 0.00 64 1010.8
20260831124557 52 296 4.3 10.4 0.00 0.00 0.00 64 1010.4
20260831123051 53 290 4.3 10.4 0.00 0.00 0.00 63 1010.1
20260831121552 53 298 5.2 12.2 0.00 0.00 0.00 62 1010.0
20260831120056 53 303 6.1 12.2 0.00 0.00 0.00 63 1009.9
20260831114549 53 288 7.8 13.0 0.00 0.00 0.00 63 1010.0
20260831113107 54 260 5.2 12.2 0.00 0.00 0.00 62 1009.9
20260831111546 54 267 6.1 12.2 0.00 0.00 0.00 61 1009.7
20260831110046 54 282 7.0 14.8 0.00 0.00 0.00 62 1009.5
20260831104544 53 255 6.1 13.9 0.00 0.00 0.00 63 1009.5
20260831103048 52 302 7.0 12.2 0.00 0.00 0.00 65 1009.2
20260831101545 52 254 4.3 10.4 0.00 0.00 0.00 66 1009.2
20260831100040 51 284 4.3 10.4 0.00 0.00 0.00 67 1009.0
20260831094549 51 260 4.3 10.4 0.00 0.00 0.00 68 1008.9
20260831093035 51 231 3.5 7.0 0.00 0.00 0.00 68 1009.0
20260831091543 51 271 3.5 7.0 0.00 0.00 0.00 68 1009.1
20260831090038 51 256 3.5 10.4 0.00 0.00 0.00 67 1009.0
20260831084532 50 228 3.5 7.8 0.00 0.01 0.00 69 1008.8
20260831083024 51 239 3.5 7.8 0.00 0.01 0.00 68 1008.7
20260831081523 52 258 3.5 9.6 0.00 0.01 0.00 67 1008.4
20260831080030 52 257 5.2 12.2 0.00 0.01 0.00 67 1008.3
20260831074517 51 297 5.2 12.2 0.00 0.02 0.00 68 1008.2
20260831073015 52 263 3.5 9.6 0.00 0.02 0.00 67 1008.2
20260831071512 53 261 3.5 9.6 0.00 0.02 0.00 65 1008.2
20260831070012 53 261 4.3 9.6 0.00 0.02 0.00 64 1008.2
20260831064506 54 297 4.3 12.2 0.00 0.02 0.00 63 1008.2
20260831063004 55 286 5.2 12.2 0.00 0.02 0.00 61 1008.0
20260831061605 55 223 7.0 14.8 0.00 0.02 0.00 60 1008.1
20260831060057 55 277 4.3 10.4 0.00 0.02 0.00 60 1007.9
20260831054554 56 270 4.3 10.4 0.00 0.02 0.02 60 1007.9
20260831053053 56 265 3.5 12.2 0.00 0.02 0.02 59 1007.9
20260831051559 56 284 6.1 13.0 0.00 0.02 0.02 60 1007.9
20260831050050 56 284 3.5 12.2 0.00 0.02 0.02 60 1008.0
20260831044551 57 242 6.1 14.8 0.00 0.02 0.02 58 1008.2
20260831043046 58 261 6.1 13.9 0.00 0.02 0.02 54 1008.1
20260831041551 59 275 6.1 13.9 0.00 0.02 0.02 48 1007.5
20260831040046 60 290 5.2 13.0 0.00 0.02 0.02 48 1007.7
20260831034549 60 286 2.6 12.2 0.00 0.02 0.02 48 1007.9
20260831033044 60 323 6.1 14.8 0.00 0.02 0.02 47 1007.9
20260831031544 60 267 6.1 11.3 0.00 0.02 0.02 48 1007.7
20260831030044 60 236 6.1 13.0 0.00 0.02 0.02 48 1007.6
20260831024544 60 270 4.3 11.3 0.00 0.02 0.02 47 1007.4
20260831023042 60 330 7.0 16.5 0.00 0.02 0.02 46 1007.2
20260831021542 61 269 5.2 16.5 0.00 0.02 0.02 46 1007.0
20260831020047 60 239 6.1 13.9 0.00 0.02 0.02 48 1007.1
20260831014542 60 261 4.3 9.6 0.00 0.02 0.02 51 1006.8
20260831013046 61 266 5.2 11.3 0.00 0.02 0.02 49 1006.8
20260831011545 61 261 4.3 11.3 0.00 0.02 0.02 51 1007.0
20260831010043 62 323 7.0 14.8 0.00 0.02 0.02 49 1007.0
20260831004540 62 273 8.7 19.1 0.00 0.02 0.02 47 1007.1
20260831003041 63 263 8.7 15.6 0.00 0.02 0.02 45 1007.0
20260831001538 64 284 10.4 19.1 0.00 0.02 0.02 41 1006.8
20260831000038 64 288 8.7 20.0 0.00 0.02 0.02 39 1006.5
20260830234542 67 273 7.8 18.2 0.00 0.02 0.02 37 1006.4
20260830233037 67 241 8.7 19.1 0.00 0.02 0.02 37 1006.2
20260830231537 65 261 6.1 12.2 0.00 0.02 0.02 41 1006.3
20260830230036 63 242 7.8 14.8 0.00 0.02 0.02 42 1006.6
20260830224536 63 256 9.6 18.2 0.00 0.02 0.02 42 1006.7
20260830223036 64 201 8.7 15.6 0.00 0.02 0.02 41 1006.8
20260830221544 64 217 7.8 15.6 0.00 0.02 0.02 42 1006.8
20260830220035 64 294 7.0 16.5 0.00 0.02 0.02 42 1006.9
20260830214534 66 256 8.7 20.0 0.00 0.02 0.02 39 1006.8
20260830213033 66 261 8.7 20.9 0.00 0.02 0.02 38 1006.7
20260830211533 68 246 6.1 15.6 0.00 0.02 0.02 36 1006.7
20260830210035 68 246 9.6 19.1 0.00 0.02 0.02 36 1006.6
20260830204532 65 229 8.7 20.0 0.00 0.02 0.02 40 1006.7
20260830203031 64 302 8.7 15.6 0.00 0.02 0.02 39 1006.5
20260830201531 65 263 7.0 17.4 0.00 0.02 0.02 37 1006.5
20260830200042 65 223 6.1 19.1 0.00 0.02 0.02 39 1006.5
20260830194532 66 304 7.0 13.9 0.00 0.02 0.02 36 1006.4
20260830193030 67 247 5.2 13.9 0.00 0.02 0.02 35 1006.4
20260830191529 68 330 4.3 11.3 0.00 0.02 0.02 33 1006.4
20260830190042 69 244 5.2 13.0 0.00 0.02 0.02 33 1006.3
20260830184526 67 237 7.8 15.6 0.00 0.02 0.02 35 1006.6
20260830183023 67 224 6.1 16.5 0.00 0.02 0.02 38 1006.5
20260830181521 66 232 8.7 16.5 0.00 0.02 0.02 40 1006.6
20260830180021 65 248 5.2 12.2 0.00 0.02 0.02 44 1006.8
20260830174518 64 221 8.7 14.8 0.00 0.02 0.02 50 1006.9
20260830173017 63 215 4.3 11.3 0.00 0.02 0.02 51 1006.8
20260830171512 62 265 2.6 7.0 0.00 0.02 0.02 46 1007.0
20260830170010 62 262 2.6 8.7 0.00 0.02 0.02 46 1007.0
20260830164508 61 261 3.5 7.0 0.00 0.02 0.02 46 1007.0
20260830163007 61 241 3.5 7.8 0.00 0.02 0.02 47 1006.9
20260830161503 60 275 1.7 7.0 0.00 0.02 0.02 51 1006.9
20260830160001 59 240 1.7 4.3 0.00 0.02 0.02 53 1006.8
20260830154501 59 260 0.9 4.3 0.00 0.02 0.02 53 1006.8